This demonstration page uses our WeatherBlox Daily Observations layout. Learn more.

Left ArrowRight Arrow

44.8408, -93.29828

Hourly Observations for August 23, 2021

Temp ( °F °C ) Dew Point ( °F °C ) Humidity (%) Winds ( mph kmh ) Pressure ( in mb ) Visibility ( mi km ) Precip ( " mm )
12:53 am 00:53 Partly Cloudy 65 18.3 60 15.6 84 84 SSE 9 15 29.89 1012 10 16 0.00 0.00
1:53 am 01:53 Mostly Cloudy 66 18.9 61 16.1 84 84 SSE 8 13 29.87 1012 10 16 0.00 0.00
2:53 am 02:53 Mostly Cloudy 67 19.4 61 16.1 81 81 SSE 6 9 29.87 1012 10 16 0.00 0.00
3:53 am 03:53 Cloudy 67 19.4 61 16.1 81 81 SSE 8 13 29.85 1011 10 16 0.00 0.00
4:53 am 04:53 Mostly Cloudy 67 19.4 61 16.1 81 81 SE 8 13 29.83 1010 10 16 0.00 0.00
5:53 am 05:53 Partly Cloudy 66 18.9 61 16.1 84 84 SSE 6 9 29.84 1010 10 16 0.00 0.00
6:53 am 06:53 Mostly Sunny 66 18.9 62 16.7 87 87 SSE 6 9 29.85 1011 10 16 0.00 0.00
7:53 am 07:53 Mostly Sunny 68 20 62 16.7 81 81 SSE 7 11 29.87 1012 10 16 0.00 0.00
8:53 am 08:53 Sunny 71 21.7 64 17.8 79 79 S 5 7 29.88 1012 10 16 0.00 0.00
9:53 am 09:53 Sunny 75 23.9 65 18.3 71 71 SSE 3 6 29.89 1012 10 16 0.00 0.00
10:53 am 10:53 Sunny 77 25 66 18.9 69 69 VRB 3 6 29.90 1012 10 16 0.00 0.00
11:53 am 11:53 Sunny 82 27.8 67 19.4 60 60 Calm 29.89 1012 10 16 0.00 0.00
12:53 pm 12:53 Sunny 83 28.3 67 19.4 59 59 S 7 11 29.88 1012 10 16 0.00 0.00
1:53 pm 13:53 Mostly Sunny 87 30.6 66 18.9 50 50 Calm 29.87 1012 10 16 0.00 0.00
2:53 pm 14:53 Mostly Sunny 89 31.7 63 17.2 42 42 W 7 11 29.86 1011 10 16 0.00 0.00
3:53 pm 15:53 Mostly Sunny 90 32.2 60 15.6 37 37 NNW 7 11 29.85 1011 10 16 0.00 0.00
4:53 pm 16:53 Mostly Sunny 90 32.2 57 13.9 33 33 Calm 29.83 1010 10 16 0.00 0.00
5:53 pm 17:53 Mostly Sunny 89 31.7 58 14.4 35 35 SW 5 7 29.84 1011 10 16 0.00 0.00
6:53 pm 18:53 Mostly Sunny 89 31.7 58 14.4 35 35 W 8 13 29.83 1010 10 16 0.00 0.00
7:53 pm 19:53 Mostly Sunny 86 30 61 16.1 43 43 WSW 5 7 29.83 1010 10 16 0.00 0.00
8:53 pm 20:53 Mostly Clear 83 28.3 62 16.7 49 49 Calm 29.86 1011 10 16 0.00 0.00
9:53 pm 21:53 Mostly Clear 82 27.8 65 18.3 56 56 S 5 7 29.88 1012 10 16 0.00 0.00
10:53 pm 22:53 Mostly Clear 80 26.7 69 20.6 69 69 S 7 11 29.88 1012 10 16 0.00 0.00
11:53 pm 23:53 Mostly Clear 77 25 69 20.6 77 77 SE 5 7 29.88 1012 10 16 0.00 0.00

Powered by AerisWeather